Weather observations for the past three days for
Brandywine Regional Airport
Imperial (Metric)
Date Time (edt) Wind (mph) Vis. (mi.) Weather Sky Cond. Temperature (ºF) Relative Humidity Wind Chill (°F) Heat Index (°F) Pressure Precipitation (in)
Air Dwpt 6 hour altimeter (in) sea level (mb) 1 hr 3 hr 6 hr
Max. Min.
18 04:15 S 3 10.00 Fair CLR 69.8 62.6 78% 30.21 0.0
18 03:55 Calm 10.00 Fair CLR 71.6 62.6 73% 30.21 0.0
18 03:35 S 3 10.00 Fair CLR 71.6 62.6 73% 30.21 0.0
18 03:15 Calm 10.00 Fair CLR 71.6 62.6 73% 30.21 0.0
18 02:55 Calm 10.00 Fair CLR 71.6 62.6 73% 30.22 0.0
18 02:35 S 5 10.00 Fair CLR 71.6 62.6 73% 30.22 0.0
18 02:15 S 3 10.00 Fair CLR 71.6 64.4 78% 30.22 0.0
18 01:55 S 3 10.00 Fair CLR 71.6 64.4 78% 30.22 0.0
18 01:35 Calm 10.00 Fair CLR 71.6 66.2 83% 30.22 0.0
18 01:15 Calm 10.00 Fair CLR 71.6 66.2 83% 30.21 0.0
18 00:55 Calm 10.00 Fair CLR 71.6 66.2 83% 30.2 0.0
18 00:35 Calm 10.00 Fair CLR 73.4 66.2 78% 30.2 0.0
18 00:15 Calm 10.00 Fair CLR 73.4 64.4 74% 30.2 0.0
17 23:55 Calm 10.00 Fair CLR 73.4 64.4 74% 30.2 0.0
17 23:35 Calm 10.00 Fair CLR 73.4 66.2 78% 30.19 0.0
17 23:15 Calm 10.00 Fair CLR 73.4 68 83% 30.19 0.0
17 22:55 SE 3 10.00 Fair CLR 75.2 68 78% 76 30.18 0.0
17 22:35 Calm 10.00 Fair CLR 75.2 68 78% 76 30.18 0.0
17 22:15 S 3 10.00 Fair CLR 77 66.2 69% 79 30.18 0.0
17 21:55 S 3 10.00 Fair CLR 77 66.2 69% 79 30.18 0.0
17 21:35 SE 5 10.00 Fair CLR 77 66.2 69% 79 30.18 0.0
17 21:15 S 5 10.00 Fair CLR 78.8 66.2 65% 81 30.18 0.0
17 20:55 Calm 10.00 Partly Cloudy SCT034 78.8 66.2 65% 81 30.17 0.0
17 20:35 S 6 10.00 Partly Cloudy SCT034 80.6 66.2 62% 83 30.16 0.0
17 20:15 S 3 10.00 Fair CLR 80.6 66.2 62% 83 30.16 0.0
17 19:55 S 5 10.00 Fair CLR 80.6 68 66% 83 30.15 0.0
17 19:35 S 3 10.00 Fair CLR 82.4 68 62% 85 30.15 0.0
17 19:15 S 5 10.00 Fair CLR 82.4 68 62% 85 30.14 0.0
17 18:55 S 5 10.00 Fair CLR 82.4 68 62% 85 30.14 0.0
17 18:35 S 5 10.00 Fair CLR 84.2 68 58% 87 30.13 0.0
17 18:15 S 6 10.00 Fair CLR 84.2 66.2 55% 87 30.14 0.0
17 17:55 S 3 10.00 Partly Cloudy SCT039 SCT045 SCT050 86 66.2 52% 88 30.13 0.0
17 17:35 Calm 10.00 Partly Cloudy SCT045 SCT050 SCT110 84.2 66.2 55% 87 30.13 0.0
17 17:15 S 5 10.00 Partly Cloudy SCT042 SCT110 87.8 66.2 49% 90 30.14 0.0
17 16:55 SW 8 10.00 Fair CLR 87.8 66.2 49% 90 30.13 0.0
17 16:35 SW 7 10.00 Partly Cloudy SCT043 SCT049 87.8 64.4 46% 89 30.14 0.0
17 16:15 S 5 10.00 Partly Cloudy SCT049 SCT060 86 64.4 49% 87 30.15 0.0
17 15:55 SW 3 10.00 Partly Cloudy SCT047 86 64.4 49% 87 30.15 0.0
17 15:35 S 7 10.00 Partly Cloudy SCT045 87.8 64.4 46% 89 30.15 0.0
17 15:15 SW 6 10.00 Partly Cloudy SCT045 87.8 64.4 46% 89 30.15 0.0
17 14:55 S 6 10.00 Partly Cloudy SCT045 86 64.4 49% 87 30.15 0.0
17 14:35 SW 9 10.00 Partly Cloudy SCT043 87.8 64.4 46% 89 30.16 0.0
17 14:15 SW 7 10.00 Partly Cloudy SCT045 86 64.4 49% 87 30.16 0.0
17 13:55 SW 6 10.00 Partly Cloudy SCT041 86 62.6 46% 87 30.17 0.0
17 13:35 S 5 10.00 Fair CLR 86 64.4 49% 87 30.17 0.0
17 13:15 S 5 10.00 Fair CLR 84.2 64.4 51% 86 30.17 0.0
17 12:55 S 7 10.00 Fair CLR 84.2 64.4 51% 86 30.17 0.0
17 12:35 SW 3 10.00 Fair CLR 82.4 64.4 55% 84 30.18 0.0
17 12:15 SW 9 10.00 Partly Cloudy SCT035 82.4 64.4 55% 84 30.19 0.0
17 11:55 S 5 10.00 Fair CLR 80.6 62.6 54% 82 30.2 0.0
17 11:35 S 7 10.00 Fair CLR 80.6 62.6 54% 82 30.2 0.0
17 11:15 S 7 10.00 Fair CLR 80.6 62.6 54% 82 30.21 0.0
17 10:55 SW 6 10.00 Fair CLR 78.8 62.6 58% 80 30.21 0.0
17 10:35 S 5 G 16 10.00 Fair CLR 78.8 62.6 58% 80 30.21 0.0
17 10:15 S 9 10.00 Fair CLR 78.8 62.6 58% 80 30.21 0.0
17 09:55 SW 6 10.00 Fair CLR 78.8 62.6 58% 80 30.21 0.0
17 09:35 S 6 10.00 Fair CLR 77 62.6 61% 79 30.21 0.0
17 09:15 SW 5 10.00 Fair CLR 77 60.8 57% 79 30.22 0.0
17 08:55 S 5 10.00 Fair CLR 75.2 60.8 61% 77 30.22 0.0
17 08:35 Calm 10.00 Fair CLR 73.4 60.8 65% 30.22 0.0
17 08:15 S 6 10.00 Fair CLR 71.6 60.8 69% 30.22 0.0
17 07:55 S 6 10.00 Fair CLR 71.6 60.8 69% 30.22 0.0
17 07:35 S 5 10.00 Fair CLR 69.8 60.8 73% 30.21 0.0
17 07:15 S 3 10.00 Fair CLR 69.8 60.8 73% 30.21 0.0
17 06:55 Calm 10.00 Fair CLR 68 60.8 78% 30.21 0.0
17 06:35 S 3 10.00 Fair CLR 68 59 73% 30.2 0.0
17 06:15 S 5 10.00 Partly Cloudy SCT065 68 59 73% 30.2 0.0
17 05:55 S 3 10.00 Partly Cloudy SCT060 66.2 59 78% 30.21 0.0
17 05:35 Calm 10.00 Mostly Cloudy SCT060 BKN080 68 59 73% 30.2 0.0
17 05:15 S 3 10.00 Mostly Cloudy SCT060 BKN080 68 57.2 69% 30.2 0.0
17 04:55 S 3 10.00 Mostly Cloudy BKN080 68 57.2 69% 30.2 0.0
17 04:35 Calm 10.00 Partly Cloudy SCT070 66.2 55.4 68% 30.2 0.0
17 04:15 Calm 10.00 Partly Cloudy SCT060 SCT070 66.2 55.4 68% 30.2 0.0
17 03:55 Calm 10.00 Partly Cloudy SCT060 SCT070 66.2 55.4 68% 30.2 0.0
17 03:35 S 3 10.00 Partly Cloudy SCT070 64.4 57.2 78% 30.2 0.0
17 03:15 Calm 10.00 Fair CLR 64.4 59 83% 30.2 0.0
17 02:55 Calm 10.00 Fair CLR 64.4 59 83% 30.21 0.0
17 02:35 Calm 10.00 Fair CLR 64.4 59 83% 30.2 0.0
17 02:15 Calm 10.00 Partly Cloudy SCT060 64.4 59 83% 30.2 0.0
17 01:55 Calm 10.00 Fair CLR 64.4 59 83% 30.2 0.0
17 01:35 Calm 10.00 Fair CLR 64.4 59 83% 30.21 0.0
17 01:15 Calm 10.00 Fair CLR 66.2 59 78% 30.21 0.0
17 00:55 Calm 10.00 Fair CLR 66.2 57.2 73% 30.21 0.0
17 00:35 Calm 10.00 Fair CLR 68 57.2 69% 30.21 0.0
17 00:15 S 3 10.00 Fair CLR 68 57.2 69% 30.2 0.0
16 23:55 Calm 10.00 Fair CLR 68 55.4 64% 30.21 0.0
16 23:35 Calm 10.00 Fair CLR 69.8 55.4 60% 30.21 0.0
16 23:15 SE 3 10.00 Fair CLR 69.8 55.4 60% 30.2 0.0
16 22:55 Calm 10.00 Fair CLR 69.8 53.6 57% 30.2 0.0
16 22:35 SE 5 10.00 Fair CLR 69.8 53.6 57% 30.2 0.0
16 22:15 SE 3 10.00 Fair CLR 71.6 53.6 53% 30.2 0.0
16 21:55 S 3 10.00 Fair CLR 71.6 53.6 53% 30.2 0.0
16 21:35 S 3 10.00 Fair CLR 71.6 53.6 53% 30.19 0.0
16 21:15 S 3 10.00 Fair CLR 73.4 53.6 50% 30.18 0.0
16 20:55 Calm 10.00 Fair CLR 73.4 53.6 50% 30.18 0.0
16 20:35 Calm 10.00 Fair CLR 75.2 53.6 47% 78 30.17 0.0
16 20:15 Calm 10.00 Fair CLR 77 53.6 44% 78 30.17 0.0
16 19:55 S 3 10.00 Fair CLR 77 53.6 44% 78 30.17 0.0
16 19:35 S 3 10.00 Fair CLR 78.8 53.6 42% 79 30.17 0.0
16 19:15 S 5 10.00 Fair CLR 80.6 50 34% 80 30.17 0.0
16 18:55 Calm 10.00 Fair CLR 80.6 50 34% 80 30.17 0.0
16 18:35 Calm 10.00 Fair CLR 80.6 50 34% 80 30.17 0.0
16 18:15 S 5 10.00 Fair CLR 80.6 50 34% 80 30.17 0.0
16 17:55 S 5 10.00 Fair CLR 80.6 50 34% 80 30.17 0.0
16 17:35 S 5 10.00 Fair CLR 80.6 50 34% 80 30.17 0.0
16 17:15 SE 5 10.00 Fair CLR 80.6 46.4 30% 80 30.18 0.0
16 16:55 S 3 10.00 Fair CLR 80.6 48.2 32% 80 30.18 0.0
16 16:35 W 7 10.00 Fair CLR 82.4 48.2 30% 81 30.19 0.0
16 16:15 Calm 10.00 Fair CLR 82.4 50 32% 81 30.2 0.0
16 15:55 S 3 10.00 Fair CLR 82.4 48.2 30% 81 30.2 0.0
16 15:35 SW 3 10.00 Fair CLR 82.4 50 32% 81 30.2 0.0
16 15:15 E 3 10.00 Fair CLR 80.6 50 34% 80 30.2 0.0
16 14:55 SW 3 10.00 Fair CLR 80.6 50 34% 80 30.21 0.0
16 14:35 Calm 10.00 Fair CLR 80.6 48.2 32% 80 30.21 0.0
16 14:15 Calm 10.00 Fair CLR 80.6 48.2 32% 80 30.22 0.0
16 13:55 SW 3 10.00 Fair CLR 80.6 50 34% 80 30.22 0.0
16 13:35 SE 3 10.00 Fair CLR 78.8 50 37% 79 30.23 0.0
16 13:15 Calm 10.00 Fair CLR 78.8 50 37% 79 30.23 0.0
16 12:55 S 3 10.00 Fair CLR 78.8 50 37% 79 30.24 0.0
16 12:35 Calm 10.00 Fair CLR 78.8 50 37% 79 30.25 0.0
16 12:15 Calm 10.00 Fair CLR 77 50 39% 78 30.25 0.0
16 11:55 S 3 10.00 Fair CLR 77 50 39% 78 30.25 0.0
16 11:35 S 3 10.00 Fair CLR 75.2 50 41% 78 30.25 0.0
16 11:15 E 3 10.00 Fair CLR 75.2 50 41% 78 30.25 0.0
16 10:55 NE 3 10.00 Fair CLR 73.4 50 44% 30.25 0.0
16 10:35 NE 6 10.00 Fair CLR 73.4 50 44% 30.25 0.0
16 10:15 NE 5 10.00 Fair CLR 71.6 51.8 50% 30.24 0.0
16 09:55 E 6 10.00 Fair CLR 71.6 50 47% 30.25 0.0
16 09:35 N 5 10.00 Fair CLR 71.6 50 47% 30.25 0.0
16 09:15 E 8 10.00 Fair CLR 69.8 50 50% 30.25 0.0
16 08:55 E 6 10.00 Fair CLR 69.8 48.2 46% 30.25 0.0
16 08:35 NE 5 10.00 Fair CLR 68 46.4 46% 30.25 0.0
16 08:15 NE 7 10.00 Fair CLR 68 46.4 46% 30.25 0.0
16 07:55 NE 5 10.00 Fair CLR 66.2 46.4 49% 30.24 0.0
16 07:35 NE 3 10.00 Fair CLR 64.4 46.4 52% 30.23 0.0
16 07:15 NE 6 10.00 Fair CLR 64.4 46.4 52% 30.23 0.0
16 06:55 NE 5 10.00 Fair CLR 62.6 46.4 56% 30.22 0.0
16 06:35 NE 3 10.00 Fair CLR 62.6 46.4 56% 30.22 0.0
16 06:15 Calm 10.00 Fair CLR 60.8 46.4 59% 30.21 0.0
16 05:55 N 3 10.00 Fair CLR 59 46.4 63% 30.21 0.0
16 05:35 Calm 10.00 Fair CLR 59 46.4 63% 30.2 0.0
16 05:15 Calm 10.00 Fair CLR 60.8 48.2 63% 30.2 0.0
16 04:55 Calm 10.00 Fair CLR 59 50 72% 30.19 0.0
16 04:35 Calm 10.00 Fair CLR 60.8 50 68% 30.18 0.0
16 04:15 Calm 10.00 Fair CLR 60.8 50 68% 30.18 0.0
16 03:55 Calm 10.00 Fair CLR 62.6 46.4 56% 30.17 0.0
16 03:35 NE 3 10.00 Fair CLR 64.4 46.4 52% 30.17 0.0
16 03:15 N 3 10.00 Fair CLR 64.4 46.4 52% 30.17 0.0
16 02:55 Calm 10.00 Fair CLR 64.4 46.4 52% 30.17 0.0
16 02:35 Calm 10.00 Fair CLR 64.4 46.4 52% 30.16 0.0
16 02:15 Calm 10.00 Fair CLR 64.4 46.4 52% 30.16 0.0
16 01:55 N 3 10.00 Fair CLR 64.4 46.4 52% 30.15 0.0
16 01:35 Calm 10.00 Fair CLR 62.6 50 64% 30.15 0.0
16 01:15 Calm 10.00 Fair CLR 62.6 50 64% 30.14 0.0
16 00:55 Calm 10.00 Fair CLR 62.6 51.8 68% 30.14 0.0
16 00:35 Calm 10.00 Fair CLR 62.6 51.8 68% 30.13 0.0
16 00:15 Calm 10.00 Fair CLR 62.6 51.8 68% 30.12 0.0
15 23:55 Calm 10.00 Fair CLR 62.6 51.8 68% 30.13 0.0
15 23:35 Calm 10.00 Fair CLR 62.6 51.8 68% 30.13 0.0
15 23:15 Calm 10.00 Fair CLR 64.4 51.8 64% 30.13 0.0
15 22:55 Calm 10.00 Fair CLR 64.4 51.8 64% 30.13 0.0
15 22:35 Calm 10.00 Fair CLR 66.2 51.8 60% 30.13 0.0
15 22:15 Calm 10.00 Fair CLR 68 51.8 56% 30.13 0.0
15 21:55 Calm 10.00 Fair CLR 68 51.8 56% 30.12 0.0
15 21:35 N 3 10.00 Fair CLR 71.6 50 47% 30.11 0.0
15 21:15 Calm 10.00 Fair CLR 71.6 48.2 44% 30.1 0.0
15 20:55 Calm 10.00 Fair CLR 73.4 46.4 38% 30.09 0.0
15 20:35 Calm 10.00 Fair CLR 75.2 46.4 36% 77 30.08 0.0
15 20:15 N 3 10.00 Fair CLR 77 44.6 32% 78 30.07 0.0
15 19:55 N 5 10.00 Fair CLR 77 44.6 32% 78 30.07 0.0
15 19:35 N 6 10.00 Fair CLR 77 44.6 32% 78 30.07 0.0
15 19:15 N 6 10.00 Fair CLR 78.8 44.6 30% 79 30.06 0.0
15 18:55 N 6 10.00 Fair CLR 78.8 44.6 30% 79 30.06 0.0
15 18:35 N 7 10.00 Fair CLR 78.8 46.4 32% 79 30.06 0.0
15 18:15 N 6 10.00 Fair CLR 78.8 46.4 32% 79 30.06 0.0
15 17:55 N 8 10.00 Fair CLR 78.8 46.4 32% 79 30.06 0.0
15 17:35 N 7 10.00 Fair CLR 78.8 46.4 32% 79 30.06 0.0
15 17:15 N 5 10.00 Fair CLR 78.8 46.4 32% 79 30.06 0.0
15 16:55 N 8 G 16 10.00 Fair CLR 78.8 46.4 32% 79 30.06 0.0
15 16:35 N 6 10.00 Partly Cloudy SCT060 78.8 44.6 30% 79 30.06 0.0
15 16:15 N 9 G 18 10.00 Partly Cloudy SCT060 78.8 50 37% 79 30.05 0.0
15 15:55 NW 7 10.00 Partly Cloudy SCT070 78.8 50 37% 79 30.05 0.0
15 15:35 N 7 10.00 Partly Cloudy SCT060 78.8 48.2 34% 79 30.05 0.0
15 15:15 NW 8 10.00 Fair CLR 78.8 50 37% 79 30.05 0.0
15 14:55 N 7 10.00 Fair CLR 78.8 46.4 32% 79 30.04 0.0
15 14:35 NW 8 10.00 Fair CLR 78.8 44.6 30% 79 30.04 0.0
15 14:15 NW 5 10.00 Partly Cloudy SCT060 SCT075 78.8 50 37% 79 30.05 0.0
15 13:35 N 9 10.00 Fair CLR 78.8 48.2 34% 79 30.06 0.0
15 13:15 N 3 10.00 Partly Cloudy SCT055 SCT075 78.8 50 37% 79 30.06 0.0
15 12:55 N 6 10.00 Fair CLR 78.8 48.2 34% 79 30.06 0.0
15 12:35 N 3 G 16 10.00 Fair CLR 77 48.2 36% 78 30.06 0.0
15 12:15 NE 8 10.00 Fair CLR 77 50 39% 78 30.05 0.0
15 11:55 N 10 10.00 Fair CLR 77 50 39% 78 30.05 0.0
15 11:35 NW 10 10.00 Fair CLR 77 50 39% 78 30.05 0.0
15 11:15 N 9 G 16 10.00 Fair CLR 75.2 50 41% 78 30.05 0.0
15 10:55 NE 8 10.00 Fair CLR 77 50 39% 78 30.04 0.0
15 10:35 N 8 10.00 Fair CLR 73.4 53.6 50% 30.04 0.0
15 10:15 N 9 10.00 Fair CLR 71.6 55.4 57% 30.03 0.0
15 09:55 N 6 10.00 Fair CLR 71.6 55.4 57% 30.02 0.0
15 09:35 N 9 10.00 Fair CLR 71.6 55.4 57% 30.03 0.0
15 09:15 N 7 10.00 Fair CLR 71.6 55.4 57% 30.02 0.0
15 08:55 N 7 10.00 Fair CLR 69.8 55.4 60% 30.02 0.0
15 08:35 N 6 10.00 Fair CLR 69.8 55.4 60% 30.02 0.0
15 08:15 N 8 10.00 Fair CLR 68 55.4 64% 30.02 0.0
15 07:55 N 9 10.00 Fair CLR 68 55.4 64% 30.02 0.0
15 07:35 N 8 10.00 Fair CLR 66.2 55.4 68% 30.01 0.0
15 07:15 NW 8 10.00 Fair CLR 66.2 55.4 68% 30 0.0
15 06:55 NW 7 10.00 Fair CLR 64.4 55.4 73% 29.99 0.0
15 06:35 NW 6 10.00 Fair CLR 64.4 55.4 73% 29.98 0.0
15 06:15 NW 7 10.00 Fair CLR 62.6 57.2 83% 29.98 0.0
15 05:55 NW 7 10.00 Fair CLR 62.6 57.2 83% 29.97 0.0
15 05:35 NW 7 10.00 Fair CLR 64.4 59 83% 29.96 0.0
15 05:15 NW 7 10.00 Fair CLR 64.4 59 83% 29.95 0.0
15 04:55 NW 7 10.00 Fair CLR 64.4 59 83% 29.94 0.0
15 04:35 NW 3 10.00 Fair CLR 64.4 59 83% 29.94 0.0
Date Time (edt) Wind (mph) Vis. (mi.) Weather Sky Cond. Air Dwpt Max. Min. Relative Humidity Wind Chill (°F) Heat Index (°F) altimeter (in) sea level (mb) 1 hr 3 hr 6 hr
6 hour
Temperature (ºF) Pressure Precipitation (in)